St. Petersburg, FL

3:38 PM EDT on March 27, 2017 (GMT -0400)
Whitted

Weather History for KSPG - May, 2012

Change the Weather History Date:

Friday, May 11, 2012

  Actual Average Record
Temperature  
Mean Temperature 82 °F -  
Max Temperature 90 °F 84 °F 93 °F (2015)
Min Temperature 73 °F 69 °F 63 °F (1958)
Cooling Degree Days 16    
Growing Degree Days 32 (Base 50)    
Moisture  
Dew Point 65 °F    
Average Humidity 60    
Maximum Humidity 79    
Minimum Humidity 43    
Precipitation  
Precipitation 0.00 in - - ()
Sea Level Pressure  
Sea Level Pressure 29.99 in    
Wind  
Wind Speed 7 mph (ENE)    
Max Wind Speed 21 mph    
Max Gust Speed 28 mph    
Visibility 10 miles    
Events      
Averages and records for this station are not official NWS values.
T = Trace of Precipitation, MM = Missing Value Source: NWS Daily Summary

Daily Weather History Graph

Daily Weather History Graph

Search for Another Location

Airport or City:

Trip Planner

Search our weather history database for the weather conditions in past years. The results will help you decide how hot, cold, wet, or windy it might be!

Date:

Astronomy

May. 11, 2012 Rise Set
Actual Time 6:43 AM EDT 8:10 PM EDT
Civil Twilight 6:18 AM EDT 8:36 PM EDT
Nautical Twilight 5:47 AM EDT 9:06 PM EDT
Astronomical Twilight 5:16 AM EDT 9:37 PM EDT
Moon 12:52 AM EDT (5/11) 12:09 PM EDT (5/11)
Length of Visible Light 14h 17m
Length of Day
13h 27m
Waning Gibbous, 63% of the Moon is Illuminated
May 11
Waning Gibbous
May 12
Last Quarter
May 20
New
May 28
First Quarter
Jun 4
Full

Hourly Weather History & Observations

Time (EDT) Temp. Heat Index Dew Point Humidity Pressure Visibility Wind Dir Wind Speed Gust Speed Precip Events Conditions
12:53 AM 73.9 °F - 62.1 °F 66% 29.94 in 10.0 mi North 4.6 mph - N/A   Clear
2:53 AM 73.9 °F - 63.0 °F 68% 29.92 in 10.0 mi Calm Calm - N/A   Clear
3:53 AM 73.9 °F - 63.0 °F 68% 29.92 in 10.0 mi Calm Calm - N/A   Clear
4:53 AM 73.9 °F - 64.0 °F 71% 29.92 in 10.0 mi NNW 3.5 mph - N/A   Clear
5:53 AM 73.0 °F - 64.9 °F 76% 29.94 in 10.0 mi Calm Calm - N/A   Clear
6:53 AM 73.0 °F - 64.9 °F 76% 29.95 in 10.0 mi NNE 4.6 mph - N/A   Clear
7:53 AM 75.0 °F - 66.9 °F 76% 29.97 in 10.0 mi East 12.7 mph - N/A   Partly Cloudy
8:53 AM 75.9 °F - 69.1 °F 79% 29.99 in 10.0 mi East 11.5 mph - N/A   Partly Cloudy
9:53 AM 79.0 °F - 69.1 °F 72% 30.01 in 10.0 mi East 12.7 mph - N/A   Scattered Clouds
10:53 AM 82.0 °F 84.9 °F 68.0 °F 62% 30.00 in 10.0 mi ESE 11.5 mph - N/A   Partly Cloudy
11:53 AM 84.0 °F 86.3 °F 66.0 °F 55% 30.00 in 10.0 mi ESE 8.1 mph - N/A   Clear
12:53 PM 84.9 °F 87.6 °F 66.9 °F 55% 29.99 in 10.0 mi East 8.1 mph - N/A   Clear
1:53 PM 86.0 °F 88.2 °F 66.0 °F 51% 29.99 in 10.0 mi NE 6.9 mph 27.6 mph N/A   Clear
2:53 PM 86.0 °F 88.2 °F 66.0 °F 51% 29.98 in 10.0 mi ENE 6.9 mph - N/A   Clear
3:53 PM 89.1 °F 91.0 °F 64.9 °F 45% 29.97 in 10.0 mi ENE 5.8 mph - N/A   Clear
4:53 PM 88.0 °F 89.3 °F 64.0 °F 45% 29.97 in 10.0 mi ENE 6.9 mph - N/A   Clear
5:53 PM 90.0 °F 91.7 °F 64.9 °F 43% 29.96 in 10.0 mi NE 4.6 mph - N/A   Scattered Clouds
6:53 PM 86.0 °F 87.3 °F 64.0 °F 48% 29.98 in 10.0 mi North 8.1 mph - N/A   Overcast
7:53 PM 84.9 °F 87.1 °F 66.0 °F 53% 30.01 in 10.0 mi ESE 12.7 mph - N/A   Mostly Cloudy
8:00 PM 84.2 °F 86.6 °F 66.2 °F 55% 30.01 in 10.0 mi ESE 16.1 mph - N/A   Overcast
8:53 PM 82.0 °F 83.8 °F 64.9 °F 56% 30.04 in 10.0 mi ESE 17.3 mph - N/A   Mostly Cloudy
9:53 PM 80.1 °F 81.2 °F 62.1 °F 54% 30.09 in 10.0 mi ESE 20.7 mph - N/A   Overcast
10:53 PM 78.1 °F - 62.1 °F 58% 30.12 in 10.0 mi ESE 18.4 mph - N/A   Partly Cloudy
11:53 PM 77.0 °F - 62.1 °F 60% 30.12 in 10.0 mi East 18.4 mph - N/A   Clear